Hsc Superjet — IINO — position and weather

sailwx.info

Track history (hours):
 
Tides and Currents Weather Stations Pressure Air Temp Water Temp Dewpoint Dewpoint Depression Visibility Wind Speed Wind Dir Waves Ship Positions

Hsc Superjet

Last reported at 2014-Jul-28 08:22 UTC. Time now 2014-Jul-28 10:22 UTC.
Position N 40°46' E 014°17'.

Length 44 m; draft 1.4 m.

Type: High speed craft. MMSI: 247540000.

Date/timePositionNaut miles runAvg speedWind from/ knotsBaromVisibWave heightAir tempDewpointWater temp
2014-Jul-28 08:22N 40°46' E 014°17'1314.8
2014-Jul-28 07:30N 40°34' E 014°15'9 0.6
2014-Jul-27 15:32N 40°42' E 014°19'8 7.8
2014-Jul-27 14:31N 40°34' E 014°16'2 1.4
2014-Jul-27 13:28N 40°33' E 014°14'0 0.0
2014-Jul-27 12:30N 40°33' E 014°14'0 0.0
2014-Jul-27 11:33N 40°33' E 014°14'3 2.8
2014-Jul-27 10:31N 40°35' E 014°17'10 0.5
2014-Jul-26 15:06N 40°45' E 014°17'1219.1
2014-Jul-26 14:28N 40°33' E 014°14'1 1.4
2014-Jul-26 13:28N 40°34' E 014°13'0 0.3
2014-Jul-26 12:33N 40°34' E 014°13'0 0.2
2014-Jul-26 11:33N 40°35' E 014°13'1 1.5
2014-Jul-26 10:33N 40°33' E 014°15'12 8.7
2014-Jul-26 09:09N 40°46' E 014°17'1220.5
2014-Jul-26 08:33N 40°33' E 014°14'13 0.9
2014-Jul-25 18:28N 40°46' E 014°17'8 8.4
2014-Jul-25 17:33N 40°39' E 014°17'4 2.1
2014-Jul-25 15:32N 40°43' E 014°17'9 9.2
2014-Jul-25 14:33N 40°34' E 014°15'1 0.5
2014-Jul-25 13:16N 40°33' E 014°14'2 1.0
2014-Jul-25 11:33N 40°35' E 014°14'2 1.8
2014-Jul-25 10:32N 40°33' E 014°15'12 4.9
2014-Jul-25 08:06N 40°45' E 014°17'1221.7
2014-Jul-25 07:33N 40°33' E 014°14'10 0.6
2014-Jul-24 15:34N 40°43' E 014°17'10 9.8
2014-Jul-24 14:33N 40°33' E 014°14'16 0.3
2014-Jul-22 15:25N 40°49' E 014°17'1614.6
2014-Jul-22 14:19N 40°33' E 014°14'0 0.0
2014-Jul-22 13:26N 40°33' E 014°14'4 1.3
2014-Jul-22 10:26N 40°37' E 014°16'9 0.5
2014-Jul-21 15:09N 40°46' E 014°17'1321.6
2014-Jul-21 14:34N 40°33' E 014°15'0 0.0
2014-Jul-21 13:33N 40°33' E 014°15'14 6.1
2014-Jul-21 11:20N 40°47' E 014°17'1414.1
2014-Jul-21 10:23N 40°33' E 014°14'1 1.0
2014-Jul-21 09:30N 40°34' E 014°14'4 4.5
2014-Jul-21 08:33N 40°38' E 014°15'12 2.6
2014-Jul-21 04:05N 40°50' E 014°16'0 0.0
2014-Jul-21 03:33N 40°50' E 014°16'0 0.0
2014-Jul-21 02:33N 40°50' E 014°16'0 0.0
2014-Jul-21 01:08N 40°50' E 014°16'0 0.0
2014-Jul-20 19:14N 40°50' E 014°16'0 0.0
2014-Jul-20 18:33N 40°50' E 014°16'0 0.0
2014-Jul-20 17:33N 40°50' E 014°16'0 0.0
2014-Jul-20 16:33N 40°50' E 014°16'8 7.6
2014-Jul-20 15:31N 40°42' E 014°16'6 5.8
2014-Jul-20 14:34N 40°37' E 014°19'5 5.0
2014-Jul-20 13:31N 40°33' E 014°14'0 0.0
2014-Jul-20 12:33N 40°33' E 014°14'0 0.0
2014-Jul-20 11:33N 40°33' E 014°14'1 1.5
2014-Jul-20 10:33N 40°35' E 014°15'1513.8
2014-Jul-20 09:26N 40°50' E 014°15'0 0.1
2014-Jul-20 07:09N 40°50' E 014°16'0 0.0
2014-Jul-20 06:33N 40°50' E 014°16'4 0.3
2014-Jul-19 15:09N 40°46' E 014°17'1321.0
2014-Jul-19 14:33N 40°33' E 014°14'1 1.5
2014-Jul-19 13:33N 40°35' E 014°15'1 1.1
2014-Jul-19 12:31N 40°35' E 014°14'1 1.0
2014-Jul-19 11:33N 40°35' E 014°13'11 7.6
2014-Jul-19 10:11N 40°45' E 014°17'5 7.0
2014-Jul-19 09:28N 40°50' E 014°16'1718.3
2014-Jul-19 08:33N 40°33' E 014°14'14 1.0
2014-Jul-18 18:32N 40°47' E 014°17'9 8.7
2014-Jul-18 17:33N 40°39' E 014°16'2 1.2
2014-Jul-18 15:31N 40°41' E 014°17'8 7.8
2014-Jul-18 14:33N 40°34' E 014°15'0 0.3
2014-Jul-18 13:31N 40°33' E 014°14'1 1.0
2014-Jul-18 12:11N 40°35' E 014°14'1 0.8
2014-Jul-18 11:27N 40°35' E 014°13'2 1.7
2014-Jul-18 10:33N 40°34' E 014°15'15 7.1
2014-Jul-18 08:24N 40°49' E 014°17'  
Track history (hours):
 
Tides and Currents Weather Stations Pressure Air Temp Water Temp Dewpoint Dewpoint Depression Visibility Wind Speed Wind Dir Waves Ship Positions

Hsc Superjet

Last reported at 2014-Jul-28 08:22 UTC. Time now 2014-Jul-28 10:22 UTC.
Position N 40°46' E 014°17'.

Length 44 m; draft 1.4 m.

Type: High speed craft. MMSI: 247540000.

Date/timePositionNaut miles runAvg speedWind from/ knotsBaromVisibWave heightAir tempDewpointWater temp
2014-Jul-28 08:22N 40°46' E 014°17'1314.8
2014-Jul-28 07:30N 40°34' E 014°15'9 0.6
2014-Jul-27 15:32N 40°42' E 014°19'8 7.8
2014-Jul-27 14:31N 40°34' E 014°16'2 1.4
2014-Jul-27 13:28N 40°33' E 014°14'0 0.0
2014-Jul-27 12:30N 40°33' E 014°14'0 0.0
2014-Jul-27 11:33N 40°33' E 014°14'3 2.8
2014-Jul-27 10:31N 40°35' E 014°17'10 0.5
2014-Jul-26 15:06N 40°45' E 014°17'1219.1
2014-Jul-26 14:28N 40°33' E 014°14'1 1.4
2014-Jul-26 13:28N 40°34' E 014°13'0 0.3
2014-Jul-26 12:33N 40°34' E 014°13'0 0.2
2014-Jul-26 11:33N 40°35' E 014°13'1 1.5
2014-Jul-26 10:33N 40°33' E 014°15'12 8.7
2014-Jul-26 09:09N 40°46' E 014°17'1220.5
2014-Jul-26 08:33N 40°33' E 014°14'13 0.9
2014-Jul-25 18:28N 40°46' E 014°17'8 8.4
2014-Jul-25 17:33N 40°39' E 014°17'4 2.1
2014-Jul-25 15:32N 40°43' E 014°17'9 9.2
2014-Jul-25 14:33N 40°34' E 014°15'1 0.5
2014-Jul-25 13:16N 40°33' E 014°14'2 1.0
2014-Jul-25 11:33N 40°35' E 014°14'2 1.8
2014-Jul-25 10:32N 40°33' E 014°15'12 4.9
2014-Jul-25 08:06N 40°45' E 014°17'1221.7
2014-Jul-25 07:33N 40°33' E 014°14'10 0.6
2014-Jul-24 15:34N 40°43' E 014°17'10 9.8
2014-Jul-24 14:33N 40°33' E 014°14'16 0.3
2014-Jul-22 15:25N 40°49' E 014°17'1614.6
2014-Jul-22 14:19N 40°33' E 014°14'0 0.0
2014-Jul-22 13:26N 40°33' E 014°14'4 1.3
2014-Jul-22 10:26N 40°37' E 014°16'9 0.5
2014-Jul-21 15:09N 40°46' E 014°17'1321.6
2014-Jul-21 14:34N 40°33' E 014°15'0 0.0
2014-Jul-21 13:33N 40°33' E 014°15'14 6.1
2014-Jul-21 11:20N 40°47' E 014°17'1414.1
2014-Jul-21 10:23N 40°33' E 014°14'1 1.0
2014-Jul-21 09:30N 40°34' E 014°14'4 4.5
2014-Jul-21 08:33N 40°38' E 014°15'12 2.6
2014-Jul-21 04:05N 40°50' E 014°16'0 0.0
2014-Jul-21 03:33N 40°50' E 014°16'0 0.0
2014-Jul-21 02:33N 40°50' E 014°16'0 0.0
2014-Jul-21 01:08N 40°50' E 014°16'0 0.0
2014-Jul-20 19:14N 40°50' E 014°16'0 0.0
2014-Jul-20 18:33N 40°50' E 014°16'0 0.0
2014-Jul-20 17:33N 40°50' E 014°16'0 0.0
2014-Jul-20 16:33N 40°50' E 014°16'8 7.6
2014-Jul-20 15:31N 40°42' E 014°16'6 5.8
2014-Jul-20 14:34N 40°37' E 014°19'5 5.0
2014-Jul-20 13:31N 40°33' E 014°14'0 0.0
2014-Jul-20 12:33N 40°33' E 014°14'0 0.0
2014-Jul-20 11:33N 40°33' E 014°14'1 1.5
2014-Jul-20 10:33N 40°35' E 014°15'1513.8
2014-Jul-20 09:26N 40°50' E 014°15'0 0.1
2014-Jul-20 07:09N 40°50' E 014°16'0 0.0
2014-Jul-20 06:33N 40°50' E 014°16'4 0.3
2014-Jul-19 15:09N 40°46' E 014°17'1321.0
2014-Jul-19 14:33N 40°33' E 014°14'1 1.5
2014-Jul-19 13:33N 40°35' E 014°15'1 1.1
2014-Jul-19 12:31N 40°35' E 014°14'1 1.0
2014-Jul-19 11:33N 40°35' E 014°13'11 7.6
2014-Jul-19 10:11N 40°45' E 014°17'5 7.0
2014-Jul-19 09:28N 40°50' E 014°16'1718.3
2014-Jul-19 08:33N 40°33' E 014°14'14 1.0
2014-Jul-18 18:32N 40°47' E 014°17'9 8.7
2014-Jul-18 17:33N 40°39' E 014°16'2 1.2
2014-Jul-18 15:31N 40°41' E 014°17'8 7.8
2014-Jul-18 14:33N 40°34' E 014°15'0 0.3
2014-Jul-18 13:31N 40°33' E 014°14'1 1.0
2014-Jul-18 12:11N 40°35' E 014°14'1 0.8
2014-Jul-18 11:27N 40°35' E 014°13'2 1.7
2014-Jul-18 10:33N 40°34' E 014°15'15 7.1
2014-Jul-18 08:24N 40°49' E 014°17'  

Dump ship's entire track history